Погода в Макао (Аомыне)

Китай     22°11′35″N   113°32′56″E
темп.,
°C
ветер,
м/с
пор.,
м/с
влажн.,
%
обл.,
%
осадки,
мм/ч
давл.,
гПа
погр.,
м
8 марта, пн
пн823:00+21в348195 0.0 1021294
02:00+20всв238457 0.0 1019264
05:00+20в358569 0.1 1019378
08:00+20вюв688584 0.1 1021567
11:00+21вюв687690 0.0 1022672
14:00+21вюв777375 0.0 1019670
17:00+21вюв677439 0.0 1018523
20:00+20вюв688120 0.0 1019485
9 марта, вт
вт923:00+20вюв710836 0.0 1021556
02:00+20в698314 0.0 1019584
05:00+19в698430 0.0 1019614
08:00+19в688142 0.0 1021632
11:00+21в577463 0.0 1022727
14:00+22вюв566952 0.0 1019690
17:00+21вюв57720 0.0 1018489
20:00+20вюв47770 0.0 1019425
10 марта, ср
ср1023:00+20вюв58800 0.0 1020460
02:00+20в510800 0.0 1019552
05:00+20в711820 0.0 1019691
08:00+20в9127934 0.1 1021898
11:00+20в81076100 0.1 1022786
14:00+21в797278 0.1 1020708
17:00+21в797584 0.0 1018586
20:00+20в8118278 0.0 1019514
11 марта, чт
чт1123:00+20в7108234 0.0 1021595
02:00+20в788159 0.0 1020720
05:00+20в688097 0.0 1020539
08:00+20св567976 0.0 1022408
11:00+22всв336533 0.0 1022525
14:00+23в336240 0.0 1019601
17:00+23вюв43657 0.0 1017516
20:00+22ююв34744 0.0 1018224
12 марта, пт
пт1223:00+21юв34800 0.0 1019239
02:00+21вюв34860 0.0 1018254
05:00+20в358716 0.0 1018281
08:00+21в358336 0.0 1020383
11:00+22вюв567015 0.0 1020597
14:00+23вюв56677 0.0 1017560
17:00+22юв57720 0.0 1015465
20:00+21юв35790 0.0 1017378